• MPC Preparation (Info)

  • MPEC 2016-N38 : 2016 NW

    The following Minor Planet Electronic Circular may be linked-to from your own Web pages, but must not otherwise be redistributed electronically.

    A form allowing access to any MPEC is at the bottom of this page.


    Read MPEC 2016-N37 Read MPEC 2016-N39


    M.P.E.C. 2016-N38                                Issued 2016 July 7, 03:01 UT
    
         The Minor Planet Electronic Circulars contain information on unusual
             minor planets and routine data on comets.  They are published
        on behalf of Division F of the International Astronomical Union by the
              Minor Planet Center, Smithsonian Astrophysical Observatory,
                              Cambridge, MA 02138, U.S.A.
    
                 Prepared using the Tamkin Foundation Computer Network
    
                                  MPC@CFA.HARVARD.EDU
                URL https://www.minorplanetcenter.net/    ISSN 1523-6714
    
                                        2016 NW
    
    Observations:
         K16N00W* C2016 07 03.39443 21 30 25.45 -15 14 32.6          19.5 VqEN038G96
         K16N00W  C2016 07 03.40071 21 30 25.60 -15 14 21.4          19.6 VqEN038G96
         K16N00W  C2016 07 03.43782 21 30 26.46 -15 13 14.6          19.3 VqEN038G96
         K16N00W  C2016 07 03.44489 21 30 26.63 -15 13 01.7          19.4 VqEN038G96
         K16N00W  C2016 07 03.45183 21 30 26.76 -15 12 49.5          19.0 VqEN038G96
         K16N00W HC2016 07 03.45382 21 30 26.81 -15 12 45.5          20.1 VoEN038691
         K16N00W HC2016 07 03.45618 21 30 26.86 -15 12 41.1          20.0 VoEN038691
         K16N00W HC2016 07 03.45846 21 30 26.90 -15 12 37.0          20.0 VoEN038691
         K16N00W  C2016 07 03.45877 21 30 26.91 -15 12 36.5          19.0 VqEN038G96
         K16N00W KC2016 07 04.04434 21 30 43.39 -14 54 56.8                qEN038J95
         K16N00W KC2016 07 04.05286 21 30 43.59 -14 54 41.7                qEN038J95
         K16N00W KC2016 07 04.06187 21 30 43.80 -14 54 25.2          19.4 RqEN038J95
         K16N00W HC2016 07 04.29559 21 30 50.34 -14 47 14.0          20.0 VoEN038691
         K16N00W HC2016 07 04.30307 21 30 50.54 -14 46 59.6          19.9 VoEN038691
         K16N00W  C2016 07 04.30917 21 30 50.57 -14 46 49.3          19.6 rREN038G45
         K16N00W HC2016 07 04.31058 21 30 50.70 -14 46 46.5          19.8 VoEN038691
         K16N00W  C2016 07 04.31399 21 30 50.70 -14 46 40.5          19.8 rREN038G45
         K16N00W  C2016 07 04.37464 21 30 52.00 -14 44 49.4          19.5 rREN038G45
         K16N00W  C2016 07 04.38431 21 30 52.20 -14 44 31.7          19.6 rREN038G45
         K16N00W  C2016 07 04.39404 21 30 52.40 -14 44 13.5          19.6 rREN038G45
         K16N00W  C2016 07 04.53790 21 30 56.084-14 39 46.57         19.5 wLEN038F51
         K16N00W  C2016 07 04.54832 21 30 56.287-14 39 27.32         19.4 wLEN038F51
         K16N00W  C2016 07 04.55875 21 30 56.495-14 39 08.13         19.4 wLEN038F51
         K16N00W KC2016 07 05.29955 21 31 15.29 -14 16 12.8          19.2 RqEN038H36
         K16N00W KC2016 07 05.30401 21 31 15.37 -14 16 04.9          18.6 RqEN038H36
         K16N00W KC2016 07 05.30847 21 31 15.45 -14 15 56.5          18.9 RqEN038H36
         K16N00W  C2016 07 05.32626 21 31 16.04 -14 15 21.7          19.4 VqEN038G96
         K16N00W  C2016 07 05.33442 21 31 16.19 -14 15 06.4          19.3 VqEN038G96
         K16N00W KC2016 07 05.34046 21 31 16.32 -14 14 54.6          19.2 RoEN038291
         K16N00W  C2016 07 05.34258 21 31 16.36 -14 14 50.9          19.4 VqEN038G96
         K16N00W KC2016 07 05.34271 21 31 16.36 -14 14 50.5          19.2 RoEN038291
         K16N00W KC2016 07 05.34495 21 31 16.40 -14 14 46.3          19.2 RoEN038291
         K16N00W  C2016 07 05.35068 21 31 16.50 -14 14 36.0          19.2 VqEN038G96
         K16N00W HC2016 07 05.36119 21 31 16.71 -14 14 16.0          19.9 VoEN038691
         K16N00W HC2016 07 05.36798 21 31 16.82 -14 14 03.4          19.8 VoEN038691
         K16N00W KC2016 07 05.73381 21 31 24.73 -14 02 15.9          19.4 RtEN038474
         K16N00W KC2016 07 05.73593 21 31 24.78 -14 02 11.9          19.3 RtEN038474
         K16N00W KC2016 07 05.73804 21 31 24.83 -14 02 07.9          19.3 RtEN038474
         K16N00W KC2016 07 05.74016 21 31 24.86 -14 02 03.7          19.4 RtEN038474
         K16N00W  C2016 07 06.35766 21 31 39.40 -13 42 45.2          19.1 VqEN038G96
         K16N00W  C2016 07 06.36411 21 31 39.45 -13 42 33.0          19.4 VqEN038G96
         K16N00W  C2016 07 06.37071 21 31 39.61 -13 42 20.2          19.3 VqEN038G96
         K16N00W  C2016 07 06.37719 21 31 39.72 -13 42 06.8          19.1 VqEN038G96
         K16N00W  C2016 07 06.42536 21 31 40.43 -13 40 35.7          19.8 rREN038G45
         K16N00W  C2016 07 06.43034 21 31 40.51 -13 40 26.7          19.5 rREN038G45
         K16N00W  C2016 07 06.43529 21 31 40.58 -13 40 16.7          19.5 rREN038G45
         K16N00W  C2016 07 06.44031 21 31 40.68 -13 40 07.0          19.4 rREN038G45
         K16N00W  C2016 07 06.44522 21 31 40.74 -13 39 57.6          19.7 rREN038G45
         K16N00W  C2016 07 06.45000 21 31 40.94 -13 39 48.3          18.6 rREN038G45
    
    Observer details:
    291 LPL/Spacewatch II.  Observer T. H. Bressi.  1.8-m f/2.7 reflector + CCD.
    474 Mount John Observatory, Lake Tekapo.  Observers A. C. Gilmore,
        P. M. Kilmartin.  Measurer P. M. Kilmartin.  1.0-m f/7.7 reflector + CCD.
    691 Steward Observatory, Kitt Peak.  Observer T. H. Bressi.  0.9-m f/3
        reflector + CCD.
    F51 Pan-STARRS 1, Haleakala.  Observers B. Gibson, T. Goggia, N. Primak,
        A. Schultz, M. Willman.  Measurers K. Chambers, S. Chastel, L. Denneau,
        H. Flewelling, M. Huber, E. Lilly, E. Magnier, R. Wainscoat, C. Waters,
        R. Weryk.  1.8-m Ritchey-Chretien + CCD.
    G45 Space Surveillance Telescope, Atom Site.  Observers M. Blythe, R. Brungard,
        P. Festler, T. McVey, J. Paige, G. Spitz.  Measurers M. Cornell, A. Klein,
        J. Ruprecht, G. Ushomirsky, J. Varey, D. Woods.  3.5-m f/1 reflector + CCD.
    G96 Mt. Lemmon Survey.  Observers R. A. Kowalski, D. C. Fuls.  Measurers
        E. J. Christensen, D. C. Fuls, A. R. Gibbs, A. D. Grauer, J. A. Johnson,
        R. A. Kowalski, S. M. Larson, G. J. Leonard, R. G. Matheny, R. L. Seaman,
        F. C. Shelly.  1.5-m reflector + 10K CCD.
    H36 Sandlot Observatory, Scranton.  Observer G. Hug.  0.56-m reflector + CCD.
    J95 Great Shefford.  Observer P. Birtwhistle.  0.40-m f/6.0 Schmidt-Cassegrain
        + CCD.
    
    Orbital elements:
    2016 NW
    Epoch 2016 July 31.0 TT = JDT 2457600.5                 MPC
    M 352.50337              (2000.0)            P               Q
    n   0.17730328     Peri.   49.15517     +0.93855622     +0.21832648
    a   3.1380380      Node   296.65822     -0.32911026     +0.79937014
    e   0.5683566      Incl.   17.40275     +0.10391658     +0.55976864
    P   5.56           H   18.5           G   0.15           U   7
    Residuals in seconds of arc
    160703 G96  0.0   0.0     160704 G45  0.2+  0.2+    160705 691  0.3-  0.0
    160703 G96  0.1+  0.1-    160704 G45  0.1+  0.2+    160705 474  0.0   0.2-
    160703 G96  0.2+  0.1-    160704 G45  0.1+  0.5+    160705 474  0.2+  0.2-
    160703 G96  0.4+  0.1+    160704 F51  0.1+  0.0     160705 474  0.3+  0.2-
    160703 G96  0.0   0.3-    160704 F51  0.0   0.0     160705 474  0.1+  0.1-
    160703 691  0.1-  0.1+    160704 F51  0.0   0.0     160706 G96  0.0   0.1+
    160703 691  0.2-  0.2+    160705 H36  0.0   0.0     160706 G96  0.8-  0.1-
    160703 691  0.4-  0.2+    160705 H36  0.1-  0.4-    160706 G96  0.0   0.1+
    160703 G96  0.2-  0.2+    160705 H36  0.3-  0.3-    160706 G96  0.0   1.1+
    160704 J95  0.0   0.1+    160705 G96  0.1+  0.2-    160706 G45  0.1-  0.0
    160704 J95  0.1+  0.3-    160705 G96  0.0   0.1-    160706 G45  0.1-  0.6-
    160704 J95  0.1+  0.2-    160705 291  0.0   0.3+    160706 G45  0.3-  0.1-
    160704 691  0.3-  0.3-    160705 G96  0.2+  0.1+    160706 G45  0.0   0.1-
    160704 691  0.2+  0.5+    160705 291  0.0   0.2+    160706 G45  0.3-  0.1-
    160704 G45  0.3-  0.1+    160705 291  0.1-  0.2+    160706 G45  1.4+  0.0
    160704 691  0.1+  0.1-    160705 G96  0.0   0.1-
    160704 G45  0.1+  0.1+    160705 691  0.0   0.1+
    
    Ephemeris:
    2016 NW                  a,e,i = 3.14, 0.57, 17                  q = 1.3545
    Date    TT    R. A. (2000) Decl.     Delta      r     Elong.  Phase     V
    2016 06 07    21 07 10.5 -25 13 47   0.9100  1.7024   124.3    29.5    20.7
    ...
    2016 06 22    21 22 52.6 -20 16 42   0.7352  1.6150   133.8    27.0    20.1
    ...
    2016 06 30    21 28 37.7 -16 52 33   0.6544  1.5716   139.3    25.0    19.7
    ...
    2016 07 06    21 31 31.2 -13 54 00   0.6002  1.5408   143.4    23.2    19.4
    2016 07 07    21 31 52.6 -13 21 56   0.5918  1.5358   144.1    22.8    19.4
    2016 07 08    21 32 11.7 -12 49 12   0.5835  1.5309   144.8    22.5    19.3
    ...
    2016 07 14    21 33 20.4 -09 18 17   0.5376  1.5023   148.8    20.5    19.1
    ...
    2016 07 22    21 32 48.1 -03 59 01   0.4868  1.4674   153.4    18.1    18.7
    ...
    2016 08 06    21 25 58.1 +07 24 50   0.4262  1.4128   155.3    17.4    18.3
    
    A. U. Tomatic                (C) Copyright 2016 MPC           M.P.E.C. 2016-N38
    

    Read MPEC 2016-N37 Read MPEC 2016-N39


    MPEC number:

    Enter an MPEC number in one of the following forms:

    • 1997-B01 (the full form)
    • J97B01 (the packed version of the full form)
    • B01 (the abbreviated form)